Date String (YYYY-MM-DD hh:mm:ss) UTC,Instrument flags,absolute air pressure of the measurement (hPa),sample flow rate (lpm),inlet stack bypass flow (lpm),air temperature of the measurement (°C),ambient temperature measured by the external sensor (°C),aerosol sample conditioner tube jacket temperature (°C),OPC LED temperature (°C),internal box temperature (°C),relative humidity of the measurement (%),span deviation,mass concentration of particles derived from Lorenz-Mie calculation of OPC scattering (μg/m³),mass concentration of particles derived from Lorenz-Mie calculation of OPC scattering (μg/m³),mass concentration of particles derived from Lorenz-Mie calculation of OPC scattering (μg/m³)
DateTimeUTC,F1_M11,P_M11,Q1_M11,Q2_M11,T1_M11,T2_M11,T3_M11,T4_M11,T5_M11,U1_M11,ZSPAN_M11,X2_M11,X0_M11,X1_M11
2023-11-07 06:00:00,SystemResetWarning,0823.0,5.00,000.00,028.0,027.1,000.0,036.4,029.5,9.0,0000.0,0003.89,0007.82,0003.30
2023-11-07 06:01:00,SystemResetWarning,0823.0,5.00,000.00,028.1,027.1,000.0,036.4,029.5,9.0,0000.0,0003.87,0007.76,0003.30
2023-11-07 06:02:00,SystemResetWarning,0823.0,5.00,000.00,028.1,027.1,000.0,036.4,029.5,9.0,0000.0,0003.84,0007.75,0003.29
2023-11-07 06:03:00,SystemResetWarning,0823.1,5.00,000.00,028.1,027.1,000.0,036.4,029.5,9.1,0000.0,0003.80,0007.62,0003.27
2023-11-07 06:04:00,SystemResetWarning,0823.1,5.00,000.00,028.1,027.2,000.0,036.4,029.5,9.1,0000.0,0003.80,0007.96,0003.28
2023-11-07 06:05:00,SystemResetWarning,0823.2,5.00,000.00,028.1,027.2,000.0,036.4,029.5,9.1,0000.0,0003.86,0008.36,0003.30
2023-11-07 06:06:00,SystemResetWarning,0823.3,5.00,000.00,028.1,027.2,000.0,036.4,029.5,9.1,0000.0,0003.87,0008.52,0003.31
2023-11-07 06:07:00,SystemResetWarning,0823.0,5.00,000.00,028.1,027.2,000.0,036.4,029.5,9.1,0000.0,0003.92,0008.56,0003.33
2023-11-07 06:08:00,SystemResetWarning,0823.0,5.00,000.00,028.1,027.2,000.0,036.4,029.5,9.1,0000.0,0003.97,0008.73,0003.35
2023-11-07 06:09:00,SystemResetWarning,0822.9,5.00,000.00,028.1,027.2,000.0,036.4,029.5,9.2,0000.0,0004.00,0008.97,0003.37
2023-11-07 06:10:00,SystemResetWarning,0822.9,5.01,000.00,028.1,027.2,000.0,036.4,029.5,9.5,0000.0,0004.02,0008.96,0003.39
2023-11-07 06:11:00,SystemResetWarning,0822.9,5.01,000.00,028.1,027.2,000.0,036.4,029.5,9.5,0000.0,0004.03,0009.11,0003.38
2023-11-07 06:12:00,SystemResetWarning,0822.9,5.00,000.00,028.1,027.2,000.0,036.5,029.5,9.2,0000.0,0004.00,0009.11,0003.34
2023-11-07 06:13:00,SystemResetWarning,0823.1,4.99,000.00,028.1,027.2,000.0,036.5,029.5,9.4,0000.0,0003.94,0008.92,0003.31
2023-11-07 06:14:00,SystemResetWarning,0823.0,4.99,000.00,028.1,027.2,000.0,036.5,029.5,9.2,0000.0,0003.91,0008.89,0003.29
2023-11-07 06:15:00,SystemResetWarning,0823.0,5.00,000.00,028.1,027.2,000.0,036.5,029.5,9.2,0000.0,0003.88,0008.38,0003.26
2023-11-07 06:16:00,SystemResetWarning,0823.0,5.01,000.00,028.1,027.1,000.0,036.5,029.5,9.1,0000.0,0003.83,0007.80,0003.24
2023-11-07 06:17:00,SystemResetWarning,0823.1,5.01,000.00,028.1,027.1,000.0,036.5,029.5,9.1,0000.0,0003.79,0008.39,0003.23
2023-11-07 06:18:00,SystemResetWarning,0823.0,5.00,000.00,028.1,027.1,000.0,036.5,029.5,9.1,0000.0,0003.73,0008.27,0003.20
2023-11-07 06:19:00,SystemResetWarning,0823.0,5.00,000.00,028.1,027.1,000.0,036.5,029.5,9.0,0000.0,0003.69,0008.20,0003.18
2023-11-07 06:20:00,SystemResetWarning,0822.9,5.00,000.00,028.1,027.1,000.0,036.5,029.5,9.0,0000.0,0003.67,0007.97,0003.16
2023-11-07 06:21:00,SystemResetWarning,0822.9,5.00,000.00,028.1,027.1,000.0,036.5,029.6,9.0,0000.0,0003.67,0007.95,0003.15
2023-11-07 06:22:00,SystemResetWarning,0823.0,4.99,000.00,028.2,027.1,000.0,036.5,029.6,9.1,0000.0,0003.67,0008.00,0003.18
2023-11-07 06:23:00,SystemResetWarning,0822.9,5.00,000.00,028.2,027.2,000.0,036.5,029.6,9.1,0000.0,0003.73,0008.08,0003.22
2023-11-07 06:24:00,SystemResetWarning,0823.0,5.00,000.00,028.2,027.2,000.0,036.5,029.6,9.1,0000.0,0003.83,0008.33,0003.26
2023-11-07 06:25:00,SystemResetWarning,0823.1,5.01,000.00,028.2,027.2,000.0,036.5,029.6,9.1,0000.0,0003.89,0008.61,0003.29
2023-11-07 06:26:00,SystemResetWarning,0823.1,5.00,000.00,028.2,027.3,000.0,036.5,029.6,9.1,0000.0,0003.93,0009.23,0003.32
2023-11-07 06:27:00,SystemResetWarning,0823.1,5.00,000.00,028.2,027.3,000.0,036.5,029.6,9.1,0000.0,0003.94,0009.23,0003.33
2023-11-07 06:28:00,SystemResetWarning,0823.1,5.00,000.00,028.2,027.3,000.0,036.5,029.6,9.1,0000.0,0003.98,0008.32,0003.35
2023-11-07 06:29:00,SystemResetWarning,0823.0,5.00,000.00,028.2,027.3,000.0,036.5,029.7,9.2,0000.0,0004.03,0008.39,0003.37
2023-11-07 06:30:00,SystemResetWarning,0823.0,5.00,000.00,028.2,027.3,000.0,036.6,029.7,9.3,0000.0,0004.03,0008.36,0003.37
2023-11-07 06:31:00,SystemResetWarning,0822.9,5.00,000.00,028.2,027.3,000.0,036.6,029.6,9.3,0000.0,0004.02,0008.36,0003.39
2023-11-07 06:32:00,SystemResetWarning,0823.0,5.00,000.00,028.2,027.3,000.0,036.6,029.7,9.2,0000.0,0004.03,0008.44,0003.40
2023-11-07 06:33:00,SystemResetWarning,0823.0,5.00,000.00,028.2,027.3,000.0,036.6,029.6,9.2,0000.0,0004.05,0008.40,0003.42
2023-11-07 06:34:00,SystemResetWarning,0823.0,4.99,000.00,028.2,027.3,000.0,036.6,029.7,9.2,0000.0,0004.10,0009.12,0003.43
2023-11-07 06:35:00,SystemResetWarning,0823.0,5.00,000.00,028.2,027.3,000.0,036.6,029.7,9.3,0000.0,0004.09,0009.04,0003.42
2023-11-07 06:36:00,SystemResetWarning,0823.0,4.99,000.00,028.3,027.3,000.0,036.6,029.6,9.2,0000.0,0004.08,0009.02,0003.44
2023-11-07 06:37:00,SystemResetWarning,0823.0,5.00,000.00,028.3,027.3,000.0,036.6,029.7,9.2,0000.0,0004.08,0008.41,0003.45
2023-11-07 06:38:00,SystemResetWarning,0822.9,5.00,000.00,028.3,027.3,000.0,036.6,029.7,9.2,0000.0,0004.08,0008.41,0003.45
2023-11-07 06:39:00,SystemResetWarning,0823.0,5.00,000.00,028.3,027.3,000.0,036.6,029.7,9.2,0000.0,0004.05,0008.79,0003.44
2023-11-07 06:40:00,SystemResetWarning,0823.1,5.00,000.00,028.3,027.3,000.0,036.6,029.7,9.2,0000.0,0004.02,0009.57,0003.43
2023-11-07 06:41:00,SystemResetWarning,0822.9,5.01,000.00,028.3,027.4,000.0,036.6,029.7,9.2,0000.0,0004.04,0010.19,0003.43
2023-11-07 06:42:00,SystemResetWarning,0822.9,5.00,000.00,028.3,027.4,000.0,036.6,029.7,9.2,0000.0,0004.02,0010.92,0003.42
2023-11-07 06:43:00,SystemResetWarning,0822.9,5.00,000.00,028.3,027.4,000.0,036.6,029.8,9.2,0000.0,0004.00,0011.85,0003.41
2023-11-07 06:44:00,SystemResetWarning,0822.9,5.00,000.00,028.3,027.4,000.0,036.6,029.7,9.2,0000.0,0004.00,0012.39,0003.41
2023-11-07 06:45:00,SystemResetWarning,0823.1,5.00,000.00,028.3,027.4,000.0,036.7,029.7,9.2,0000.0,0004.00,0012.33,0003.41
2023-11-07 06:46:00,SystemResetWarning,0822.9,5.00,000.00,028.3,027.3,000.0,036.7,029.7,9.2,0000.0,0003.97,0012.08,0003.41
2023-11-07 06:47:00,SystemResetWarning,0822.9,4.99,000.00,028.3,027.3,000.0,036.7,029.7,9.1,0000.0,0003.98,0012.50,0003.42
2023-11-07 06:48:00,SystemResetWarning,0823.1,5.00,000.00,028.3,027.3,000.0,036.7,029.7,9.0,0000.0,0003.98,0013.24,0003.41
2023-11-07 06:49:00,SystemResetWarning,0822.9,5.01,000.00,028.3,027.3,000.0,036.7,029.7,9.0,0000.0,0003.97,0013.66,0003.41
2023-11-07 06:50:00,SystemResetWarning,0823.0,5.00,000.00,028.3,027.3,000.0,036.7,029.7,9.0,0000.0,0003.96,0013.85,0003.39
2023-11-07 06:51:00,SystemResetWarning,0822.9,5.00,000.00,028.3,027.3,000.0,036.7,029.7,8.9,0000.0,0003.93,0012.78,0003.37
2023-11-07 06:52:00,SystemResetWarning,0823.0,5.01,000.00,028.3,027.3,000.0,036.7,029.7,8.9,0000.0,0003.86,0012.40,0003.34
2023-11-07 06:53:00,SystemResetWarning,0823.1,5.02,000.00,028.3,027.3,000.0,036.7,029.7,8.9,0000.0,0003.86,0011.60,0003.32
2023-11-07 06:54:00,SystemResetWarning,0823.0,5.00,000.00,028.3,027.3,000.0,036.7,029.7,8.9,0000.0,0003.84,0010.47,0003.29
2023-11-07 06:55:00,SystemResetWarning,0822.9,4.99,000.00,028.3,027.3,000.0,036.7,029.7,8.9,0000.0,0003.79,0009.85,0003.27
2023-11-07 06:56:00,SystemResetWarning,0822.9,5.00,000.00,028.3,027.3,000.0,036.7,029.7,8.8,0000.0,0003.72,0009.24,0003.22
2023-11-07 06:57:00,SystemResetWarning,0822.9,5.00,000.00,028.3,027.2,000.0,036.7,029.6,8.9,0000.0,0003.66,0009.17,0003.19
2023-11-07 06:58:00,SystemResetWarning,0823.0,5.00,000.00,028.3,027.2,000.0,036.7,029.6,8.8,0000.0,0003.63,0009.03,0003.16
2023-11-07 06:59:00,SystemResetWarning,0822.9,5.00,000.00,028.3,027.2,000.0,036.7,029.6,8.8,0000.0,0003.57,0009.11,0003.12
